RH
23 24 19 16 13 8 6 6 6 8 12 16 12 14 16 40 29 52 69 73 68 83 54 54 53 47 43 45 48 41 25 21 31 39 51 60 59 53 46 48 48 50 49 50 50 49 49 49 49
18 21 17 13 10 7 5 6 8 8 13 19 21 25 23 42 65 88 86 75 70 75 92 59 54 51 48 46 48 48 38 24 23 28 38 48 48 46 44 45 49 50 50 51 51 51 48 48 50
19 19 13 9 8 7 6 7 6 13 23 21 24 25 34 56 66 82 92 80 72 73 83 56 52 53 50 49 47 48 46 36 27 25 27 31 34 36 37 41 46 50 50 53 54 51 48 47 48
17 14 10 9 6 5 7 7 6 16 22 22 20 31 67 88 88 94 84 79 80 90 75 56 53 53 51 49 47 46 48 44 40 31 29 29 30 34 35 39 43 45 48 48 50 48 48 46 46
15 12 10 9 7 5 8 7 8 14 19 19 21 36 56 89 99 94 84 82 88 97 61 56 53 53 53 51 48 49 46 51 50 48 41 37 36 36 37 38 39 42 44 45 48 48 48 48 46
12 10 10 7 5 5 7 8 10 13 15 17 20 30 53 90 94 87 84 86 92 97 59 53 52 53 53 53 53 51 51 53 54 55 55 54 50 45 44 45 46 47 47 48 49 54 51 52 48
11 10 10 8 6 6 7 9 11 13 16 18 23 26 59 94 87 83 88 94 96 88 95 56 55 55 54 54 55 54 55 55 55 56 57 58 60 61 60 57 55 55 54 56 56 60 61 60 59
11 9 10 7 8 6 7 11 11 16 16 20 26 24 35 78 82 82 87 88 89 72 72 83 65 66 61 58 56 56 56 56 57 58 58 60 62 65 68 70 70 68 66 66 64 66 68 70 70
11 9 7 6 7 8 10 11 11 17 17 29 35 32 48 77 78 76 77 79 88 77 72 71 82 85 70 68 68 69 68 70 72 73 72 75 80 88 72 71 73 72 73 74 77 76 76 77 79
10 8 7 7 8 8 9 12 10 15 20 21 29 44 70 75 73 70 68 69 78 78 66 69 70 72 79 95 63 77 74 91 95 89 91 85 84 83 84 83 82 82 81 81 82 83 82 83 91
9 10 7 8 9 10 9 9 11 12 16 18 25 40 67 70 71 67 62 62 68 71 68 62 57 56 46 66 82 86 90 95 84 86 89 79 85 100 100 99 100 99 99 99 99 98 98 98 99
14 10 8 8 8 11 10 10 9 11 13 13 18 28 58 64 67 64 58 58 62 63 63 53 43 33 30 32 65 72 78 83 92 54 69 78 93 98 99 98 98 98 99 96 93 95 89 90 96
14 12 9 9 10 10 10 10 11 10 12 16 19 33 48 54 59 61 55 54 57 57 62 49 34 27 21 26 30 32 35 50 42 44 52 86 100 98 97 95 97 100 95 95 94 93 93 86 87
13 13 12 11 11 11 10 10 10 11 11 13 18 23 40 48 52 55 53 51 54 54 64 51 38 26 22 24 16 16 21 25 34 32 37 60 82 82 100 99 99 94 92 90 87 86 84 93 94
18 18 14 12 11 9 10 10 9 8 11 13 18 24 33 41 45 49 51 51 52 53 62 44 34 26 22 19 17 20 23 33 36 35 40 49 68 75 85 94 94 91 87 84 85 85 82 79 81
20 18 19 11 9 9 10 12 7 7 9 13 15 22 27 32 40 44 48 50 52 53 63 59 39 26 24 21 19 22 26 34 34 39 42 45 50 57 70 78 74 68 68 66 68 67 60 70 70
22 22 16 13 9 10 10 11 8 8 7 11 14 18 23 28 36 41 48 50 50 51 64 68 39 29 24 21 21 23 28 36 34 41 37 37 40 43 48 50 44 44 45 41 39 45 38 55 61
22 19 17 16 11 11 12 11 10 9 12 14 13 13 17 23 28 39 46 49 49 50 65 69 46 34 27 26 24 28 33 38 39 40 37 37 37 36 37 36 35 35 37 31 21 19 21 47 37
22 22 21 16 13 13 14 14 12 10 9 10 14 13 12 17 24 33 45 51 51 52 65 71 66 40 32 32 36 43 61 51 41 40 36 31 26 21 19 18 17 21 18 14 14 17 53 65 20
25 26 25 19 16 17 18 18 15 13 12 10 11 15 14 15 20 28 44 53 55 56 65 70 76 51 44 54 62 65 72 72 56 36 25 17 13 13 12 13 15 18 31 22 21 23 50 69 25
29 30 27 25 20 19 21 21 17 14 13 14 12 11 14 15 17 23 40 53 59 62 67 68 73 75 64 66 69 69 72 60 42 24 17 13 15 16 16 18 20 22 32 34 28 27 30 74 74
35 23 24 26 27 32 19 29 20 15 13 12 11 12 12 15 15 19 32 50 60 65 67 66 70 77 74 73 68 53 51 60 54 53 27 17 19 20 22 22 24 25 26 28 32 35 50 75 77
31 25 28 28 30 31 28 28 22 14 15 14 12 12 12 13 15 15 18 44 56 63 67 70 68 74 76 81 70 62 64 54 52 56 25 21 22 25 27 29 30 31 32 32 32 34 44 73 83
24 28 28 28 30 43 29 26 22 17 19 17 14 14 16 17 15 16 17 39 52 60 64 72 70 73 77 84 77 76 67 68 60 60 46 32 28 30 32 33 31 31 32 36 41 46 49 62 67
27 33 46 44 41 39 20 22 21 18 19 19 21 22 23 26 25 21 19 35 49 57 66 73 75 72 77 87 85 84 75 69 66 61 66 68 47 37 33 33 36 37 38 40 41 40 36 37 55
32 33 45 62 47 37 37 31 21 19 21 23 23 27 29 32 35 35 32 33 43 55 64 76 76 73 75 87 87 86 80 70 67 71 70 73 67 42 35 35 38 39 36 34 32 35 40 33 46
35 41 30 47 58 72 38 26 19 18 26 28 29 29 30 34 38 42 42 43 47 56 64 78 78 72 76 87 88 85 79 71 72 78 78 73 54 39 39 38 37 29 22 23 20 27 28 48 72
29 32 54 54 73 57 32 26 24 27 37 30 29 23 21 25 27 37 50 50 53 59 66 82 84 73 77 86 85 83 82 82 87 80 70 61 50 44 41 36 28 20 17 17 32 36 40 62 60
33 36 41 45 64 60 47 32 19 25 26 27 22 17 20 25 28 26 36 54 59 66 73 83 89 79 77 82 83 81 86 86 84 80 64 56 47 48 40 33 23 21 20 35 50 36 32 62 72
28 33 40 61 53 55 60 57 24 22 19 20 16 14 22 32 35 38 36 44 60 70 77 86 94 85 81 88 90 81 77 78 84 73 56 50 46 44 37 29 18 20 25 36 46 61 65 65 71
Wind_Speed
9 12 8 8 7 7 15 4 6 4 4 4 4 2 7 20 7 5 11 11 16 13 17 16 14 12 11 10 9 8 9 10 10 10 10 10 8 7 6 6 7 6 5 5 3 2 2 2 3
7 8 9 12 8 13 8 9 6 5 7 7 7 2 4 13 12 15 13 16 16 11 12 16 14 13 11 11 9 9 8 9 11 11 12 11 10 8 8 8 7 7 6 6 4 3 2 1 1
8 8 12 6 12 14 10 5 4 10 8 12 8 3 5 6 9 8 12 17 16 15 14 18 16 14 13 12 11 10 8 8 9 10 11 11 10 10 9 9 8 8 7 7 6 5 4 3 2
5 7 10 9 16 9 8 5 4 8 12 13 9 7 7 6 5 9 15 15 15 14 15 18 17 15 14 13 12 11 10 10 10 10 10 11 11 10 10 10 10 9 9 9 8 7 6 5 4
5 10 10 14 16 11 2 6 6 11 11 13 10 11 7 6 12 16 15 15 14 13 14 16 16 14 13 13 13 12 12 11 11 11 11 11 11 11 11 11 10 10 10 9 9 8 7 7 6
10 6 11 13 14 5 4 5 10 13 14 12 14 10 7 10 15 16 15 14 14 13 13 15 14 14 13 13 13 12 13 13 13 12 12 12 12 12 12 12 12 12 11 11 11 11 10 9 8
13 10 14 18 14 11 6 6 12 15 11 12 8 9 6 14 16 16 16 15 14 14 12 14 14 14 13 12 12 12 13 13 13 13 14 14 14 14 14 14 14 14 14 13 13 13 12 12 11
12 9 17 14 11 13 4 6 14 12 12 7 8 8 8 19 19 17 15 14 14 15 14 12 12 13 14 14 13 12 11 12 13 13 14 14 14 15 15 16 17 17 16 16 15 15 15 15 14
9 10 12 15 9 10 6 9 12 12 11 9 9 5 3 23 21 19 18 16 14 13 14 14 13 12 11 10 11 11 12 12 13 15 15 14 14 13 18 18 17 16 16 15 16 16 16 16 15
12 11 16 11 8 8 5 10 14 14 15 13 13 5 14 22 23 22 21 19 16 14 14 14 14 13 10 6 8 8 9 10 13 13 12 16 18 19 19 18 17 16 15 15 14 14 14 13 13
11 15 16 8 11 13 14 11 14 16 18 23 21 16 16 21 22 22 20 18 17 16 14 16 15 14 11 10 6 5 5 5 10 13 13 16 16 16 16 15 13 14 11 6 9 8 7 8 8
11 16 18 18 15 12 15 16 17 19 20 16 23 21 21 22 24 23 21 20 18 17 16 17 17 16 14 7 5 6 6 6 5 12 11 11 13 14 15 16 16 15 14 15 12 11 11 11 10
15 18 20 17 17 18 20 20 18 19 20 13 11 16 22 23 23 22 21 19 19 17 15 17 17 15 13 8 8 9 7 9 10 10 12 9 6 11 12 14 14 13 14 14 13 13 14 15 13
19 14 18 19 20 20 21 21 23 25 19 22 17 19 21 24 24 23 23 22 20 18 15 16 15 14 11 11 10 10 10 9 9 10 10 11 9 8 5 8 7 9 12 11 10 13 12 10 11
15 18 19 22 24 22 19 22 25 27 21 18 21 21 22 24 24 25 24 23 22 19 17 18 18 15 13 12 10 10 9 8 8 9 9 10 10 10 9 7 7 10 11 11 11 12 12 11 9
18 19 18 16 12 15 18 22 17 24 22 21 22 24 24 25 26 25 24 23 22 20 20 19 18 16 15 13 10 10 9 8 8 8 8 9 9 9 8 5 8 9 8 8 7 7 7 6 7
16 16 18 16 11 10 16 18 10 12 18 22 24 24 24 25 25 26 26 24 24 22 20 20 20 18 17 14 13 12 9 8 8 8 9 9 8 9 8 7 7 7 5 6 6 5 6 6 7
16 20 18 17 14 14 18 19 17 20 13 17 22 25 27 27 28 28 27 26 24 24 22 20 20 21 19 16 13 11 11 9 9 9 9 9 8 8 6 5 5 4 2 3 4 3 3 4 7
19 19 20 18 16 15 18 20 19 21 22 23 22 27 29 30 29 28 28 27 26 25 24 23 22 23 21 17 14 12 10 10 10 11 10 9 9 8 8 6 4 3 3 3 2 1 3 3 7
16 19 21 20 18 17 18 22 20 20 23 25 24 27 30 28 30 31 31 29 29 27 25 24 24 24 21 17 14 12 11 9 11 12 12 11 10 9 8 7 5 3 0 1 2 2 2 3 6
18 20 20 21 20 22 20 28 25 26 33 33 29 29 30 31 31 31 32 31 29 29 28 27 25 25 22 18 17 16 16 14 13 12 12 11 10 9 7 5 4 4 3 1 1 2 2 3 5
19 17 18 18 15 17 17 21 18 19 17 10 21 23 25 28 30 31 32 32 29 26 26 26 26 25 23 23 20 20 17 14 12 12 14 13 11 9 8 6 5 5 4 3 2 3 4 7 4
19 10 14 14 17 18 19 14 13 7 8 5 15 15 15 19 23 29 31 33 29 25 25 25 25 24 23 24 20 20 15 15 20 15 15 14 12 10 9 7 6 5 4 3 2 2 4 4 4
8 7 13 14 13 15 17 15 12 6 14 12 13 14 14 19 15 21 26 27 26 24 26 26 26 26 26 24 22 22 21 19 18 17 15 14 13 11 9 8 7 6 5 4 3 3 3 4 4
9 11 7 8 10 14 15 13 13 10 10 6 10 13 14 17 14 14 15 20 22 24 27 26 25 25 25 24 24 23 21 20 19 19 15 15 14 12 12 10 7 6 5 5 4 3 2 2 2
14 16 9 8 12 15 9 10 11 14 17 19 14 16 18 17 14 10 10 12 18 22 26 25 25 26 26 24 23 22 22 20 18 18 16 14 14 14 12 10 9 7 5 4 4 3 2 2 1
12 12 11 14 11 6 10 19 17 15 11 8 9 14 17 17 17 12 9 11 17 22 25 25 24 25 24 23 21 21 22 20 19 18 18 17 16 14 13 11 8 6 5 3 3 3 2 2 3
11 3 4 3 5 16 15 18 15 7 8 9 10 18 21 22 17 13 10 11 16 20 24 25 25 25 24 24 24 22 21 20 19 21 19 17 17 15 13 10 8 7 5 5 3 2 4 4 4
7 11 6 2 5 5 11 12 5 13 9 8 13 24 16 21 25 25 13 12 16 19 27 29 31 29 26 27 26 26 23 23 22 20 19 19 17 15 13 11 8 7 6 5 5 4 5 6 5
9 11 13 9 11 8 11 12 18 18 13 17 27 26 16 21 22 23 21 16 15 19 22 25 26 27 27 27 26 27 26 25 24 22 22 20 17 16 14 11 10 9 7 7 6 7 7 7 7
Wind_Direction
327 329 300 270 243 230 265 182 343 161 204 54 134 63 62 39 10 81 133 162 146 159 168 174 174 176 179 170 155 151 141 148 161 169 173 176 177 178 178 182 175 174 180 182 176 142 113 95 76
319 307 277 271 252 253 252 106 202 174 122 165 110 173 150 80 61 124 135 144 159 160 155 175 177 183 183 182 180 173 161 155 163 169 173 181 185 188 186 184 187 186 191 194 192 197 191 187 123
323 281 273 239 244 266 332 79 204 109 140 158 151 236 81 84 98 129 148 144 157 159 166 182 183 187 189 193 192 194 182 181 177 176 179 185 189 190 186 189 193 197 199 203 206 217 221 224 223
298 232 245 253 265 269 305 23 267 143 176 182 163 139 94 89 129 137 140 150 158 164 182 175 185 191 195 197 201 204 200 200 198 194 193 192 193 194 192 194 197 201 205 211 220 225 231 234 238
261 263 262 241 264 271 287 283 230 186 189 205 205 131 109 144 134 137 147 153 153 157 171 181 186 192 198 200 208 207 213 212 211 210 208 207 207 207 205 206 208 209 211 218 228 232 235 238 240
250 259 260 259 260 199 255 244 236 210 207 211 215 137 117 173 148 150 155 156 159 154 176 184 185 190 198 205 209 211 215 220 223 224 224 224 224 223 222 220 221 221 223 223 229 236 236 236 238
254 269 267 285 295 287 244 236 242 219 205 218 216 193 117 169 160 161 162 161 161 169 162 185 189 193 200 206 211 216 219 224 228 232 234 235 237 237 235 233 232 232 234 234 239 242 244 245 246
278 280 266 270 268 282 135 237 251 228 211 210 190 219 187 182 165 161 159 161 174 185 187 181 194 199 208 212 216 222 227 232 236 238 239 241 243 242 242 240 238 237 238 239 242 248 253 255 257
254 262 259 268 268 276 102 254 223 230 210 189 201 305 82 169 164 162 161 163 167 182 193 195 184 197 216 215 221 228 233 239 241 241 241 240 236 238 242 242 245 244 246 246 247 250 254 260 265
244 256 270 354 328 288 281 239 252 224 226 216 205 203 152 163 170 172 173 174 172 175 190 196 196 192 186 181 207 223 225 226 227 235 239 236 237 240 244 249 244 243 245 246 247 250 254 261 263
260 254 290 311 270 289 278 269 251 230 237 223 213 192 178 172 179 182 182 184 181 175 173 192 197 195 185 201 192 196 213 236 240 237 237 249 247 242 233 237 235 237 238 236 240 258 252 237 240
269 262 266 279 277 261 263 263 266 244 240 257 227 200 186 186 188 188 187 188 185 178 180 189 194 200 205 210 185 218 207 219 223 245 235 252 241 235 238 240 241 241 232 239 238 238 245 250 271
261 259 271 267 267 263 269 263 262 256 244 235 239 170 192 197 195 193 192 192 190 183 179 187 197 203 209 204 229 231 237 226 243 246 237 224 227 229 239 239 240 237 242 244 246 245 252 260 262
291 287 278 272 263 263 261 260 249 248 254 244 227 219 209 205 200 195 194 195 191 189 185 191 197 208 212 225 238 240 239 248 240 244 239 231 222 215 213 230 234 247 244 244 254 257 256 255 264
276 274 266 255 251 248 249 254 247 251 240 225 231 219 215 211 206 203 200 198 194 192 190 198 206 210 217 226 230 235 232 227 236 243 234 230 224 221 214 218 222 235 245 250 256 259 262 268 276
264 265 267 260 241 252 225 260 266 239 225 220 231 222 220 215 211 207 204 200 196 194 195 198 204 208 213 221 225 230 224 222 232 237 233 226 222 215 200 213 225 236 243 240 245 257 255 272 281
239 258 265 250 215 252 243 255 266 291 256 205 229 227 221 220 213 212 207 201 200 197 193 196 203 208 213 215 218 222 216 214 217 219 224 220 216 211 206 215 230 226 239 246 247 257 265 274 279
253 241 235 255 269 227 252 259 254 255 227 232 247 234 223 219 219 215 208 204 202 200 196 197 202 208 208 208 213 212 210 212 212 217 223 217 215 212 207 218 216 209 212 254 237 241 273 306 296
281 285 280 285 288 272 271 275 273 268 257 224 236 246 235 226 225 218 210 206 202 202 198 197 198 206 205 202 198 201 194 205 212 216 209 202 198 192 190 194 198 198 218 252 293 353 347 316 326
278 269 268 272 273 278 286 277 277 272 264 252 243 236 243 230 225 220 209 207 206 204 202 198 199 206 200 196 186 182 186 186 201 205 203 200 197 194 191 189 183 175 196 4 12 29 88 353 350
258 262 271 278 297 292 284 276 265 254 242 247 247 239 241 238 234 225 210 212 210 208 206 203 201 203 194 189 184 185 188 197 198 202 204 201 194 188 181 173 164 153 149 143 84 82 96 49 15
270 270 270 280 275 274 283 289 289 295 295 225 236 238 241 250 244 238 213 214 216 217 213 207 204 201 195 191 197 199 193 188 194 192 203 196 190 183 178 173 169 171 171 161 119 91 74 91 41
261 290 292 278 274 285 269 270 286 222 219 352 345 210 246 258 258 252 236 212 212 214 219 213 209 205 200 201 196 194 181 191 199 192 194 194 192 186 178 174 174 172 170 163 153 123 104 74 78
263 255 255 253 258 260 266 257 285 321 35 24 19 13 351 323 266 255 245 208 207 212 215 218 212 208 204 202 194 193 186 192 187 191 189 188 190 188 185 184 187 188 181 169 143 111 107 100 99
234 250 257 243 221 251 272 258 237 60 57 29 350 351 0 356 342 306 257 200 210 216 215 217 218 216 210 203 199 194 192 190 187 189 187 186 185 189 193 193 187 187 181 173 161 155 133 110 94
236 227 233 256 265 280 359 260 261 44 52 33 31 15 5 9 2 336 299 262 228 224 223 221 223 217 214 207 199 193 190 189 187 182 189 184 185 191 192 192 187 185 185 182 164 149 141 131 95
238 239 256 271 269 259 258 266 271 282 83 56 17 6 5 0 358 339 300 256 234 227 223 220 223 220 217 209 199 192 187 184 184 183 183 188 189 190 188 186 185 185 185 182 174 169 154 127 105
252 100 210 198 235 240 248 246 255 99 21 8 346 328 325 320 322 324 298 260 230 225 222 218 216 218 214 204 197 191 186 182 185 188 184 186 189 189 187 183 185 188 193 194 187 148 139 127 109
206 218 210 279 244 263 266 258 249 3 349 324 322 322 332 329 325 317 305 273 239 221 212 218 211 208 210 204 199 196 186 187 189 188 187 191 188 183 181 181 186 191 188 177 176 166 133 115 93
261 251 226 238 244 238 273 274 307 315 324 318 316 314 332 319 320 315 313 292 256 232 224 214 210 208 206 201 194 197 194 192 189 189 188 192 189 184 186 179 193 190 185 178 169 149 133 110 94